DW6016 Weather Reports


time (UTC)temp
C
wind
direction
speed
KPH
gust
KPH
rain 1hr
cm
rain 24hr
cm
rain mn
cm
humidity
%
barometer
mb
20260902045432 17 313 0.0 0.0 0.00 0.00 0.00 77 1012.7
20260902044928 17 324 0.0 0.0 0.00 0.00 0.00 77 1012.9
20260902044423 17 316 0.0 0.0 0.00 0.00 0.00 77 1012.8
20260902043919 17 324 0.0 0.0 0.00 0.00 0.00 77 1012.7
20260902043414 17 312 0.0 0.0 0.00 0.00 0.00 77 1012.9
20260902042909 17 306 0.0 0.0 0.00 0.00 0.00 77 1012.8
20260902042408 17 326 0.0 0.0 0.00 0.00 0.00 77 1012.5
20260902041904 17 308 0.0 0.0 0.00 0.00 0.00 76 1012.7
20260902041403 17 314 0.0 0.0 0.00 0.00 0.00 76 1012.7
20260902040903 17 310 0.0 0.0 0.00 0.00 0.00 76 1012.7
20260902040358 17 350 0.0 0.0 0.00 0.00 0.00 76 1012.8
20260902035857 17 313 0.0 0.0 0.00 0.00 0.00 76 1012.8
20260902035352 17 313 0.0 0.0 0.00 0.00 0.00 76 1012.6
20260902034851 17 300 0.0 0.0 0.00 0.00 0.00 76 1012.5
20260902034346 17 322 0.0 0.0 0.00 0.00 0.00 76 1012.9
20260902033844 17 315 0.0 0.0 0.00 0.00 0.00 75 1012.5
20260902033339 17 314 0.0 0.0 0.00 0.00 0.00 75 1012.4
20260902032838 17 321 0.0 0.0 0.00 0.00 0.00 74 1012.5
20260902032339 17 309 0.0 0.0 0.00 0.00 0.00 74 1012.4
20260902031833 17 311 0.0 0.0 0.00 0.00 0.00 74 1012.8
20260902031330 18 315 0.0 1.6 0.00 0.00 0.00 74 1012.2
20260902030825 18 312 0.0 0.0 0.00 0.00 0.00 74 1012.6
20260902030319 18 198 1.6 3.2 0.00 0.00 0.00 73 1012.6
20260902025818 18 10 0.0 0.0 0.00 0.00 0.00 74 1012.4
20260902025314 18 359 0.0 0.0 0.00 0.00 0.00 73 1012.6
20260902024809 18 359 0.0 0.0 0.00 0.00 0.00 73 1012.4
20260902024304 18 16 0.0 1.6 0.00 0.00 0.00 72 1012.4
20260902023759 18 346 0.0 0.0 0.00 0.00 0.00 73 1012.4
20260902023255 18 1 0.0 0.0 0.00 0.00 0.00 73 1012.1
20260902022754 18 1 0.0 0.0 0.00 0.00 0.00 73 1012.3
20260902022250 18 337 0.0 0.0 0.00 0.00 0.00 72 1012.2
20260902021745 18 337 0.0 0.0 0.00 0.00 0.00 71 1012.2
20260902021245 18 339 0.0 0.0 0.00 0.00 0.00 71 1012.0
20260902020741 19 340 0.0 0.0 0.00 0.00 0.00 71 1012.0
20260902020237 19 345 0.0 0.0 0.00 0.00 0.00 70 1012.1
20260902015732 19 332 0.0 1.6 0.00 0.00 0.00 70 1012.3
20260902015229 19 351 0.0 0.0 0.00 0.00 0.00 70 1012.2
20260902014724 19 326 0.0 1.6 0.00 0.00 0.00 70 1012.0
20260902014220 19 327 0.0 1.6 0.00 0.00 0.00 70 1012.1
20260902013718 19 320 0.0 0.0 0.00 0.00 0.00 70 1012.2
20260902013214 19 319 0.0 0.0 0.00 0.00 0.00 70 1012.0
20260902012709 20 330 1.6 1.6 0.00 0.00 0.00 69 1012.0
20260902012205 20 328 1.6 1.6 0.00 0.00 0.00 68 1012.0
20260902011700 20 314 1.6 1.6 0.00 0.00 0.00 68 1012.1
20260902011155 20 308 1.6 3.2 0.00 0.00 0.00 67 1011.8
20260902010654 20 322 0.0 1.6 0.00 0.00 0.00 67 1012.3
20260902010150 20 319 0.0 0.0 0.00 0.00 0.00 67 1011.9
20260902005648 20 305 0.0 0.0 0.00 0.00 0.00 67 1011.8
20260902005144 20 314 0.0 0.0 0.00 0.00 0.00 67 1012.0
20260902004643 20 317 0.0 0.0 0.00 0.00 0.00 68 1011.8
20260902004138 20 306 1.6 3.2 0.00 0.00 0.00 67 1012.0
20260902003634 20 312 0.0 1.6 0.00 0.00 0.00 67 1011.8
20260902003129 20 308 3.2 4.8 0.00 0.00 0.00 66 1011.7
20260902002625 20 318 0.0 0.0 0.00 0.00 0.00 66 1011.7
20260902002119 20 314 1.6 1.6 0.00 0.00 0.00 64 1011.7
20260902001614 21 297 0.0 0.0 0.00 0.00 0.00 64 1011.7
20260902001109 21 329 3.2 3.2 0.00 0.00 0.00 64 1011.6
20260902000604 21 306 0.0 0.0 0.00 0.00 0.00 64 1011.9
20260902000100 21 298 1.6 1.6 0.00 0.00 0.00 64 1011.6
20260901235559 21 303 4.8 9.7 0.00 0.00 0.00 63 1011.8
20260901235055 21 316 0.0 0.0 0.00 0.00 0.00 63 1011.5
20260901234553 21 301 0.0 1.6 0.00 0.00 0.00 64 1011.9
20260901234049 21 311 3.2 3.2 0.00 0.00 0.00 63 1011.7
20260901233549 21 313 0.0 1.6 0.00 0.00 0.00 63 1011.7
20260901233045 21 299 1.6 1.6 0.00 0.00 0.00 63 1011.9
20260901232540 21 271 1.6 1.6 0.00 0.00 0.00 65 1012.0
20260901232035 21 316 3.2 3.2 0.00 0.00 0.00 65 1011.8
20260901231531 21 334 0.0 0.0 0.00 0.00 0.00 66 1011.8
20260901231028 21 281 1.6 3.2 0.00 0.00 0.00 67 1012.0
20260901230528 20 350 0.0 1.6 0.00 0.00 0.00 67 1011.9
20260901230023 21 299 8.0 9.7 0.00 0.00 0.00 65 1012.1
20260901225518 21 310 8.0 11.3 0.00 0.00 0.00 64 1012.0
20260901225012 20 297 1.6 3.2 0.00 0.00 0.00 65 1012.0
20260901224508 20 300 3.2 3.2 0.00 0.00 0.00 65 1012.0
20260901224004 20 314 1.6 1.6 0.00 0.00 0.00 64 1011.9
20260901223459 21 296 4.8 4.8 0.00 0.00 0.00 62 1012.2
20260901222955 21 318 0.0 0.0 0.00 0.00 0.00 65 1012.2
20260901222451 21 306 3.2 3.2 0.00 0.00 0.00 65 1012.1
20260901221947 20 302 1.6 1.6 0.00 0.00 0.00 66 1012.1
20260901221443 21 315 0.0 1.6 0.00 0.00 0.00 65 1012.1
20260901220943 21 301 1.6 3.2 0.00 0.00 0.00 65 1012.1
20260901220442 20 308 0.0 0.0 0.00 0.00 0.00 67 1012.1
20260901215940 20 313 0.0 0.0 0.00 0.00 0.00 68 1012.0
20260901215439 20 312 1.6 3.2 0.00 0.00 0.00 67 1012.1
20260901214939 20 306 0.0 0.0 0.00 0.00 0.00 68 1012.1
20260901214438 20 304 0.0 0.0 0.00 0.00 0.00 68 1012.3
20260901213938 20 314 0.0 0.0 0.00 0.00 0.00 69 1012.0
20260901213432 20 305 0.0 0.0 0.00 0.00 0.00 67 1012.1
20260901212931 20 311 1.6 1.6 0.00 0.00 0.00 66 1012.1
20260901212427 20 318 3.2 3.2 0.00 0.00 0.00 66 1012.1
20260901211924 20 306 0.0 1.6 0.00 0.00 0.00 67 1012.1
20260901211419 20 311 0.0 0.0 0.00 0.00 0.00 65 1012.1
20260901210915 20 309 0.0 0.0 0.00 0.00 0.00 66 1012.0
20260901210410 20 312 0.0 1.6 0.00 0.00 0.00 67 1012.2
20260901205907 20 310 0.0 0.0 0.00 0.00 0.00 67 1012.3
20260901205401 20 305 0.0 0.0 0.00 0.00 0.00 68 1012.2
20260901204856 20 300 1.6 1.6 0.00 0.00 0.00 69 1012.2
20260901204353 20 319 0.0 0.0 0.00 0.00 0.00 66 1012.2
20260901203852 21 306 0.0 0.0 0.00 0.00 0.00 66 1012.5
20260901203346 20 308 0.0 0.0 0.00 0.00 0.00 68 1012.5
20260901202842 20 322 0.0 0.0 0.00 0.00 0.00 66 1012.4
20260901202336 20 313 0.0 1.6 0.00 0.00 0.00 69 1012.5
20260901201833 20 308 0.0 0.0 0.00 0.00 0.00 71 1012.4
20260901201332 20 301 1.6 1.6 0.00 0.00 0.00 72 1012.4
20260901200826 19 326 0.0 1.6 0.00 0.00 0.00 71 1012.4
20260901200321 19 313 0.0 0.0 0.00 0.00 0.00 73 1012.4
20260901195820 19 314 0.0 0.0 0.00 0.00 0.00 74 1012.3
20260901195313 18 334 0.0 0.0 0.00 0.00 0.00 75 1012.3
20260901194809 18 322 1.6 1.6 0.00 0.00 0.00 76 1012.5
20260901194303 18 325 0.0 0.0 0.00 0.00 0.00 76 1012.5
20260901193800 19 352 0.0 1.6 0.00 0.00 0.00 73 1012.5
20260901193258 19 325 0.0 0.0 0.00 0.00 0.00 74 1012.7
20260901192753 19 313 1.6 1.6 0.00 0.00 0.00 73 1012.6
20260901192249 19 292 0.0 0.0 0.00 0.00 0.00 72 1012.7
20260901191744 20 261 1.6 1.6 0.00 0.00 0.00 72 1012.7
20260901191240 20 330 0.0 0.0 0.00 0.00 0.00 72 1012.9
20260901190736 20 313 0.0 0.0 0.00 0.00 0.00 73 1012.9
20260901190230 19 311 0.0 0.0 0.00 0.00 0.00 74 1013.1
20260901185728 19 307 1.6 1.6 0.00 0.00 0.00 75 1012.9
20260901185227 18 319 0.0 0.0 0.00 0.00 0.00 77 1013.0
20260901184723 18 334 1.6 1.6 0.00 0.00 0.00 76 1012.8
20260901184218 19 212 1.6 3.2 0.00 0.00 0.00 74 1013.1
20260901183714 19 317 0.0 1.6 0.00 0.00 0.00 74 1012.9
20260901183213 19 316 0.0 0.0 0.00 0.00 0.00 74 1013.0
20260901182710 18 319 0.0 1.6 0.00 0.00 0.00 77 1013.1
20260901182208 18 311 0.0 0.0 0.00 0.00 0.00 77 1013.3
20260901181704 18 311 0.0 1.6 0.00 0.00 0.00 79 1013.3
20260901181204 18 311 0.0 0.0 0.00 0.00 0.00 79 1013.0
20260901180703 18 329 0.0 0.0 0.00 0.00 0.00 80 1013.3
20260901180157 18 312 0.0 0.0 0.00 0.00 0.00 81 1013.1
20260901175657 18 304 4.8 4.8 0.00 0.00 0.00 82 1013.4
20260901175157 17 268 1.6 1.6 0.00 0.00 0.00 84 1013.3
20260901174652 17 310 4.8 4.8 0.00 0.00 0.00 84 1013.3
20260901174148 17 26 1.6 1.6 0.00 0.00 0.00 86 1013.3
20260901173643 16 309 0.0 0.0 0.00 0.00 0.00 89 1013.3
20260901173138 16 314 1.6 1.6 0.00 0.00 0.00 89 1013.2
20260901172634 16 314 1.6 1.6 0.00 0.00 0.00 89 1013.3
20260901172132 16 312 3.2 3.2 0.00 0.00 0.00 89 1013.1
20260901171632 16 322 0.0 0.0 0.00 0.00 0.00 90 1013.1
20260901171131 16 313 0.0 0.0 0.00 0.00 0.00 91 1013.0
20260901170631 16 311 0.0 0.0 0.00 0.00 0.00 92 1013.2
20260901170126 16 302 0.0 0.0 0.00 0.00 0.00 92 1013.1
20260901165625 16 318 0.0 0.0 0.00 0.00 0.00 92 1013.1
20260901165120 16 311 0.0 0.0 0.00 0.00 0.00 93 1013.3
20260901164616 15 313 0.0 0.0 0.00 0.00 0.00 94 1013.0
20260901164111 15 278 0.0 0.0 0.00 0.00 0.00 94 1013.2
20260901163606 15 317 0.0 0.0 0.00 0.00 0.00 94 1013.1
20260901163059 15 319 0.0 0.0 0.00 0.00 0.00 93 1013.3
20260901162555 15 326 0.0 0.0 0.00 0.00 0.00 92 1013.2
20260901162054 15 313 0.0 1.6 0.00 0.00 0.00 91 1013.2
20260901161553 15 318 0.0 0.0 0.00 0.00 0.00 91 1013.1
20260901161053 15 320 0.0 0.0 0.00 0.00 0.00 91 1012.9
20260901160549 15 329 0.0 0.0 0.00 0.00 0.00 91 1013.0
20260901160044 15 318 0.0 1.6 0.00 0.00 0.00 91 1013.2
20260901155543 15 323 0.0 0.0 0.00 0.00 0.00 92 1013.0
20260901155039 15 309 1.6 1.6 0.00 0.00 0.00 91 1013.0
20260901154539 15 317 0.0 0.0 0.00 0.00 0.00 91 1013.1
20260901154034 15 308 0.0 0.0 0.00 0.00 0.00 91 1013.3
20260901153529 15 302 0.0 0.0 0.00 0.00 0.00 91 1013.2
20260901153029 15 317 1.6 1.6 0.00 0.00 0.00 90 1013.1
20260901152529 15 324 0.0 0.0 0.00 0.00 0.00 90 1013.2
20260901152028 15 311 0.0 1.6 0.00 0.00 0.00 89 1013.0
20260901151524 15 307 0.0 0.0 0.00 0.00 0.00 88 1012.8
20260901151023 15 312 0.0 0.0 0.00 0.00 0.00 87 1012.9
20260901150521 15 314 0.0 0.0 0.00 0.00 0.00 87 1012.8
20260901150020 15 311 0.0 1.6 0.00 0.00 0.00 87 1012.8
20260901145513 15 320 0.0 0.0 0.00 0.00 0.00 87 1012.7
20260901145013 15 318 0.0 0.0 0.00 0.00 0.00 86 1012.7
20260901144508 15 308 0.0 0.0 0.00 0.00 0.00 86 1012.7
20260901144003 15 305 0.0 1.6 0.00 0.00 0.00 86 1012.7
20260901143459 15 314 0.0 0.0 0.00 0.00 0.00 86 1012.6
20260901142955 15 314 0.0 1.6 0.00 0.00 0.00 86 1012.8
20260901142450 15 311 0.0 0.0 0.00 0.00 0.00 86 1012.6
20260901141945 15 314 0.0 0.0 0.00 0.00 0.00 86 1012.7
20260901141444 15 288 0.0 0.0 0.00 0.00 0.00 87 1012.5
20260901140940 15 286 0.0 0.0 0.00 0.00 0.00 87 1012.6
20260901140437 15 286 0.0 0.0 0.00 0.00 0.00 87 1012.5
20260901135932 15 252 1.6 3.2 0.00 0.00 0.00 87 1012.7
20260901135427 15 310 0.0 0.0 0.00 0.00 0.00 87 1012.4
20260901134923 15 292 0.0 0.0 0.00 0.00 0.00 88 1012.3
20260901134419 15 308 0.0 0.0 0.00 0.00 0.00 88 1012.2
20260901133918 15 308 0.0 0.0 0.00 0.00 0.00 88 1012.3
20260901133418 15 308 0.0 0.0 0.00 0.00 0.00 88 1012.3
20260901132916 15 302 0.0 0.0 0.00 0.00 0.00 88 1012.5
20260901132411 15 303 0.0 0.0 0.00 0.00 0.00 89 1012.3
20260901131910 15 303 0.0 0.0 0.00 0.00 0.00 89 1012.3
20260901131410 15 303 0.0 0.0 0.00 0.00 0.00 89 1012.4
20260901130906 15 304 0.0 0.0 0.00 0.00 0.00 90 1012.4
20260901130400 14 303 0.0 0.0 0.00 0.00 0.00 90 1012.3
20260901125858 14 302 0.0 0.0 0.00 0.00 0.00 90 1012.3
20260901125357 14 285 0.0 0.0 0.00 0.00 0.00 90 1012.4
20260901124852 14 285 0.0 0.0 0.00 0.00 0.00 90 1012.3
20260901124347 14 285 0.0 0.0 0.00 0.00 0.00 90 1012.2
20260901123847 14 285 0.0 0.0 0.00 0.00 0.00 90 1012.3
20260901123342 14 285 0.0 0.0 0.00 0.00 0.00 90 1012.0
20260901122840 14 280 0.0 1.6 0.00 0.00 0.00 90 1012.2
20260901122335 14 294 0.0 0.0 0.00 0.00 0.00 90 1012.3
20260901121834 14 294 0.0 0.0 0.00 0.00 0.00 90 1012.1
20260901121330 14 293 0.0 0.0 0.00 0.00 0.00 90 1012.3
20260901120825 14 293 0.0 0.0 0.00 0.00 0.00 90 1012.3
20260901120319 14 330 0.0 0.0 0.00 0.00 0.00 90 1012.2
20260901115815 14 330 0.0 0.0 0.00 0.00 0.00 90 1012.3
20260901115310 14 331 0.0 0.0 0.00 0.00 0.00 90 1012.2
20260901114808 14 331 0.0 0.0 0.00 0.00 0.00 90 1012.2
20260901114302 14 307 0.0 0.0 0.00 0.00 0.00 90 1012.3
20260901113801 14 289 0.0 0.0 0.00 0.00 0.00 91 1012.1
20260901113255 14 296 0.0 0.0 0.00 0.00 0.00 91 1012.3
20260901112750 14 297 0.0 0.0 0.00 0.00 0.00 91 1012.2
20260901112249 14 296 0.0 0.0 0.00 0.00 0.00 91 1012.2
20260901111744 14 296 0.0 1.6 0.00 0.00 0.00 91 1012.0
20260901111243 13 300 0.0 0.0 0.00 0.00 0.00 91 1012.0
20260901110737 13 306 0.0 1.6 0.00 0.00 0.00 92 1012.2
20260901110233 13 316 0.0 0.0 0.00 0.00 0.00 92 1012.0
20260901105730 13 316 0.0 0.0 0.00 0.00 0.00 91 1012.1
20260901105229 13 316 0.0 0.0 0.00 0.00 0.00 90 1012.1
20260901104725 14 316 0.0 0.0 0.00 0.00 0.00 90 1012.1
20260901104226 14 308 0.0 0.0 0.00 0.00 0.00 90 1011.9
20260901103725 14 307 1.6 1.6 0.00 0.00 0.00 90 1011.8
20260901103220 14 300 0.0 0.0 0.00 0.00 0.00 89 1011.9
20260901102715 14 301 0.0 0.0 0.00 0.00 0.00 89 1011.9
20260901102214 14 302 0.0 0.0 0.00 0.00 0.00 89 1011.9
20260901101711 14 301 0.0 0.0 0.00 0.00 0.00 89 1011.9
20260901101211 14 288 0.0 0.0 0.00 0.00 0.00 90 1012.2
20260901100705 14 302 0.0 0.0 0.00 0.00 0.00 90 1011.8
20260901100159 14 304 0.0 0.0 0.00 0.00 0.00 90 1012.1
20260901095658 13 322 0.0 0.0 0.00 0.00 0.00 90 1011.9
20260901095156 13 322 0.0 1.6 0.00 0.00 0.00 91 1011.8
20260901094651 13 322 0.0 0.0 0.00 0.00 0.00 90 1011.7
20260901094150 14 322 0.0 0.0 0.00 0.00 0.00 90 1012.0
20260901093645 14 323 0.0 0.0 0.00 0.00 0.00 90 1011.9
20260901093144 14 317 0.0 0.0 0.00 0.00 0.00 90 1011.8
20260901092640 14 317 0.0 0.0 0.00 0.00 0.00 90 1011.5
20260901092136 14 317 0.0 0.0 0.00 0.00 0.00 90 1011.5
20260901091632 14 318 0.0 0.0 0.00 0.00 0.00 90 1011.6
20260901091126 14 306 0.0 0.0 0.00 0.00 0.00 90 1011.6
20260901090621 13 306 0.0 0.0 0.00 0.00 0.00 90 1011.3
20260901090117 14 306 0.0 0.0 0.00 0.00 0.00 89 1011.5
20260901085612 14 306 0.0 0.0 0.00 0.00 0.00 89 1011.5
20260901085108 14 306 0.0 0.0 0.00 0.00 0.00 88 1011.3
20260901084604 14 306 0.0 0.0 0.00 0.00 0.00 88 1011.4
20260901084100 15 306 0.0 0.0 0.00 0.00 0.00 87 1011.1
20260901083554 15 306 0.0 0.0 0.00 0.00 0.00 86 1011.3
20260901083052 15 306 0.0 0.0 0.00 0.00 0.00 86 1011.1
20260901082547 15 306 0.0 0.0 0.00 0.00 0.00 86 1011.3
20260901082043 15 295 0.0 0.0 0.00 0.00 0.00 86 1011.4
20260901081538 15 295 0.0 0.0 0.00 0.00 0.00 86 1011.4
20260901081033 15 295 0.0 0.0 0.00 0.00 0.00 86 1011.5
20260901080532 15 294 0.0 0.0 0.00 0.00 0.00 86 1011.4
20260901080032 15 295 1.6 1.6 0.00 0.00 0.00 86 1011.3
20260901075528 15 294 0.0 0.0 0.00 0.00 0.00 86 1011.3
20260901075027 15 293 0.0 0.0 0.00 0.00 0.00 85 1011.3
20260901074526 15 293 0.0 0.0 0.00 0.00 0.00 84 1011.1
20260901074022 16 293 0.0 0.0 0.00 0.00 0.00 83 1011.1
20260901073518 16 293 0.0 0.0 0.00 0.00 0.00 82 1011.0
20260901073013 16 293 0.0 0.0 0.00 0.00 0.00 82 1010.9
20260901072508 16 293 0.0 0.0 0.00 0.00 0.00 81 1010.8
20260901072003 16 288 0.0 0.0 0.00 0.00 0.00 80 1010.8
20260901071503 17 287 0.0 0.0 0.00 0.00 0.00 79 1010.8
20260901071001 17 283 0.0 1.6 0.00 0.00 0.00 79 1010.7
20260901070457 17 286 0.0 0.0 0.00 0.00 0.00 78 1010.7
20260901065955 17 291 0.0 0.0 0.00 0.00 0.00 77 1010.6
20260901065451 17 279 0.0 0.0 0.00 0.00 0.00 77 1010.7
20260901064940 17 261 1.6 1.6 0.00 0.00 0.00 77 1010.6
20260901064436 17 295 0.0 1.6 0.00 0.00 0.00 76 1010.3
20260901063934 18 295 0.0 1.6 0.00 0.00 0.00 76 1010.3
20260901063430 18 278 1.6 1.6 0.00 0.00 0.00 75 1010.3
20260901062926 18 305 0.0 0.0 0.00 0.00 0.00 75 1010.2
20260901062421 18 321 0.0 1.6 0.00 0.00 0.00 75 1010.1
20260901061917 18 299 0.0 0.0 0.00 0.00 0.00 74 1009.9
20260901061413 18 294 0.0 0.0 0.00 0.00 0.00 74 1010.0
20260901060907 18 282 1.6 1.6 0.00 0.00 0.00 73 1009.9
20260901060403 18 270 1.6 1.6 0.00 0.00 0.00 73 1009.9
20260901055902 18 295 0.0 1.6 0.00 0.00 0.00 72 1009.8
20260901055359 18 297 0.0 0.0 0.00 0.00 0.00 72 1009.7
20260901054855 18 299 0.0 0.0 0.00 0.00 0.00 71 1009.8
20260901054352 19 286 1.6 1.6 0.00 0.00 0.00 71 1009.8
20260901053848 18 285 1.6 1.6 0.00 0.00 0.00 71 1009.7
20260901053343 18 296 0.0 0.0 0.00 0.00 0.00 72 1009.8
20260901052838 18 291 0.0 0.0 0.00 0.00 0.00 72 1009.6
20260901052334 18 306 1.6 1.6 0.00 0.00 0.00 72 1009.4
20260901051832 18 314 0.0 0.0 0.00 0.00 0.00 72 1009.6
20260901051327 18 295 0.0 0.0 0.00 0.00 0.00 73 1009.5
20260901050823 18 295 0.0 0.0 0.00 0.00 0.00 72 1009.4
20260901050318 18 295 0.0 0.0 0.00 0.00 0.00 71 1009.4
20260901045813 18 295 0.0 0.0 0.00 0.00 0.00 71 1009.4